Weather History for MMCZ - October, 2012

Change the Weather History Date:

Thursday, October 18, 2012

  Actual Average Record
Temperature  
Mean Temperature 75 °F -  
Max Temperature 84 °F 86 °F 91 °F (2006)
Min Temperature 66 °F 76 °F 64 °F (2013)
Cooling Degree Days 10    
Growing Degree Days 25 (Base 50)    
Moisture  
Dew Point 70 °F    
Average Humidity 89    
Maximum Humidity 100    
Minimum Humidity 66    
Precipitation  
Precipitation 0.00 in - - ()
Sea Level Pressure  
Sea Level Pressure 29.85 in    
Wind  
Wind Speed 1 mph ()    
Max Wind Speed 7 mph    
Max Gust Speed -    
Visibility 7.5 miles    
Events      
Averages and records for this station are not official NWS values.
T = Trace of Precipitation, MM = Missing Value Source: Averaged Metar Reports

Daily Weather History Graph

Daily Weather History Graph

Search for Another Location

Airport or City:

Trip Planner

Search our weather history database for the weather conditions in past years. The results will help you decide how hot, cold, wet, or windy it might be!

Date:

Astronomy

Oct. 18, 2012 Rise Set
Actual Time 6:44 AM CDT 6:21 PM CDT
Civil Twilight 6:21 AM CDT 6:43 PM CDT
Nautical Twilight 5:55 AM CDT 7:09 PM CDT
Astronomical Twilight 5:30 AM CDT 7:35 PM CDT
Moon 9:59 AM CDT (10/18) 9:20 PM CDT (10/18)
Length of Visible Light 12h 21m
Length of Day
11h 37m
Waxing Crescent, 14% of the Moon is Illuminated
Oct 18
Waxing Crescent
Oct 21
First Quarter
Oct 29
Full
Nov 6
Last Quarter
Nov 13
New

Hourly Weather History & Observations

Time (CDT) Temp. Heat Index Dew Point Humidity Pressure Visibility Wind Dir Wind Speed Gust Speed Precip Events Conditions
12:46 AM 69.8 °F - 69.8 °F 100% 29.82 in 7.0 mi Calm Calm - N/A   Partly Cloudy
1:40 AM 69.8 °F - 69.8 °F 100% 29.85 in 7.0 mi Calm Calm - N/A   Scattered Clouds
2:40 AM 69.8 °F - 69.8 °F 100% 29.85 in 7.0 mi Calm Calm - N/A   Scattered Clouds
3:50 AM 68.0 °F - 68.0 °F 100% 29.84 in 7.0 mi Calm Calm - N/A   Clear
4:43 AM 68.0 °F - 68.0 °F 100% 29.82 in 7.0 mi Calm Calm - N/A   Clear
5:43 AM 66.2 °F - 66.2 °F 100% 29.82 in 7.0 mi Calm Calm - N/A   Clear
6:47 AM 66.2 °F - 66.2 °F 100% 29.81 in 7.0 mi Calm Calm - N/A   Clear
7:42 AM 68.0 °F - 68.0 °F 100% 29.85 in 8.0 mi Calm Calm - N/A   Clear
8:40 AM 75.2 °F - 75.2 °F 100% 29.87 in 8.0 mi Calm Calm - N/A   Clear
9:45 AM 80.6 °F 85.4 °F 73.4 °F 79% 29.91 in 8.0 mi Calm Calm - N/A   Partly Cloudy
10:45 AM 82.4 °F 87.2 °F 71.6 °F 70% 29.89 in 8.0 mi NE 5.8 mph - N/A   Scattered Clouds
11:41 AM 82.4 °F 88.2 °F 73.4 °F 74% 29.88 in 8.0 mi NE 6.9 mph - N/A   Scattered Clouds
12:40 PM 82.4 °F 88.2 °F 73.4 °F 74% 29.84 in 8.0 mi North 6.9 mph - N/A   Scattered Clouds
1:43 PM 82.4 °F 86.3 °F 69.8 °F 66% 29.84 in 8.0 mi NE 5.8 mph - N/A   Scattered Clouds
2:42 PM 84.2 °F 89.6 °F 71.6 °F 66% 29.84 in 8.0 mi East 4.6 mph - N/A   Scattered Clouds
3:43 PM 78.8 °F - 71.6 °F 78% 29.86 in 8.0 mi ESE 5.8 mph - N/A   Scattered Clouds
4:45 PM 80.6 °F 84.6 °F 71.6 °F 74% 29.82 in 8.0 mi ESE 6.9 mph - N/A   Scattered Clouds
5:44 PM 78.8 °F - 71.6 °F 78% 29.82 in 8.0 mi ESE 5.8 mph - N/A   Clear
6:41 PM 77.0 °F - 71.6 °F 83% 29.81 in 8.0 mi Calm Calm - N/A   Clear
7:46 PM 71.6 °F - 71.6 °F 100% 29.84 in 8.0 mi Calm Calm - N/A   Clear
8:44 PM 71.6 °F - 69.8 °F 94% 29.86 in 7.0 mi Calm Calm - N/A   Clear
9:45 PM 69.8 °F - 69.8 °F 100% 29.90 in 7.0 mi Calm Calm - N/A   Clear
10:43 PM 69.8 °F - 69.8 °F 100% 29.87 in 7.0 mi Calm Calm - N/A   Scattered Clouds
11:46 PM 69.8 °F - 68.0 °F 94% 29.87 in 7.0 mi Calm Calm - N/A   Scattered Clouds